Regional Weather Roundup
Issued by NWS

Home | Current Version | Previous Version | Graphics & Text | Print | Product List | Glossary On
Versions: 1 2 3 4 5 6 7 8 9 10 11 12 13 14 15 16 17 18 19 20 21 22 23 24 25 26 27 28 29 30 31 32 33 34 35 36 37 38 39 40 41 42 43 44 45 46 47 48 49 50
000
ASUS45 KTFX 021210
RWRMT
MONTANA REGIONAL WEATHER ROUNDUP
NATIONAL WEATHER SERVICE GREAT FALLS MT
600 AM MDT SUN AUG 02 2015

NOTE: "FAIR" INDICATES FEW OR NO CLOUDS BELOW 12000 FEET WITH NO
SIGNIFICANT WEATHER AND/OR OBSTRUCTIONS TO VISIBILITY.

MTZ001>007-043-021300-
WEST OF THE DIVIDE

CITY           SKY/WX    TMP DP  RH WIND       PRES   REMARKS
KALISPELL      SUNNY     63  45  51 N9        29.97R
MISSOULA       PTCLDY    56  40  55 CALM      30.03R
BUTTE          CLEAR     45  35  68 SE7       30.17S
MULLAN PASS    MOCLDY    66  14  13 NW5       30.15S
DEER LODGE       N/A     45  37  76 CALM      30.14S
EUREKA           N/A     48  32  53 CALM      29.99R
HAMILTON         N/A     61  37  41 SW3       30.03S
LIBBY            N/A     48  30  49 CALM      29.98R
PLAINS           N/A     49  37  63 CALM      29.98R
RONAN            N/A     52  37  56 CALM      30.01S
THOMPSON FALLS   N/A     47  31  54 CALM      30.02R
$$

MTZ008-052>055-021300-
SOUTHWEST MONTANA

CITY           SKY/WX    TMP DP  RH WIND       PRES   REMARKS
BOZEMAN        CLEAR     50  42  74 SE9       30.08S
DILLON         CLEAR     54  37  52 S12       30.12S
W YELLOWSTONE  PTCLDY    37  36  93 CALM      30.24S
THREE FORKS      N/A     47  29  50 CALM      30.06S
TWIN BRIDGES     N/A     50  37  60 S2        30.09S
$$

MTZ009-010-012-014-046-048-049-054-021300-
EAST SLOPES AND CENTRAL MONTANA

CITY           SKY/WX    TMP DP  RH WIND       PRES   REMARKS
CUT BANK       CLEAR     51  48  89 NW9       30.10R
GREAT FALLS    CLEAR     53  47  79 W8        30.05R
MALMSTROM AFB  CLEAR     57  48  73 SW8       30.05R
HELENA         PTCLDY    62  38  40 CALM      30.04S
CONRAD           N/A     56  54  93 W8        30.10R
$$

MTZ011-013-016-021-045-047-050-051-021300-
NORTH CENTRAL MONTANA

CITY           SKY/WX    TMP DP  RH WIND       PRES   REMARKS
HAVRE          CLEAR     59  53  80 E12       30.02R
LEWISTOWN      CLEAR     59  50  72 SE14      30.04R
CHINOOK          N/A     57  54  88 CALM      30.04R
FORT BENTON      N/A     59  43  55 S6        30.04R
$$

MTZ017>020-022>027-061-062-021300-
NORTHEAST MONTANA

CITY           SKY/WX    TMP DP  RH WIND       PRES   REMARKS
GLASGOW        CLEAR     58  51  78 N6        30.00R
JORDAN           N/A     59  51  75 NE10      30.00R
SIDNEY         CLEAR     55  50  82 NW3       29.96R
WOLF POINT     PTCLDY    54  51  90 SW3       30.00R
MALTA            N/A     57  50  78 CALM      29.99R
PLENTYWOOD       N/A     57  54  88 N9        29.98R
POPLAR           N/A     55  54  94 SW3       30.00R
SCOBEY           N/A     51  46  83 CALM      30.00R
$$

MTZ028>42-056>058-021300-
SOUTHCENTRAL AND SOUTHEAST MONTANA

CITY           SKY/WX    TMP DP  RH WIND       PRES   REMARKS
BAKER          CLEAR     52  48  86 CALM      29.99R
BILLINGS       PTCLDY    63  37  38 NW10      29.99R
LIVINGSTON     CLEAR     53  40  61 NW14      30.07R
MILES CITY     CLEAR     61  53  75 NE13      29.95S
EKALAKA          N/A     62  44  51 SE6       29.97S
FORSYTH          N/A     63  52  67 E3        29.94R
LAUREL           N/A     65  33  30 NW2       29.97R
ROUNDUP          N/A     60  48  64 N1        29.93R
$$

REGIONAL REPORTS...DAKOTAS

CITY           SKY/WX    TMP DP  RH WIND       PRES   REMARKS
WILLISTON      CLEAR     54  50  86 CALM      29.96R
MINOT          CLEAR     59  53  80 W10       29.88R
DICKINSON      CLEAR     50  48  93 W6        29.93R
BEACH          FAIR      48  48 100 NW5       29.99R
CROSBY         FAIR      55  55 100 NW9       29.96R
BISMARCK       CLEAR     62  55  77 NW8       29.88R
GRAND FORKS    PTCLDY    61  59  93 NW10      29.71R
FARGO          MOCLDY    68  61  78 N14       29.67R
BUFFALO SD       N/A     60  50  69 N13       29.91R
RAPID CITY     CLEAR     64  52  64 N12       29.92R
$$

REGIONAL REPORTS...WYOMING/IDAHO/WASHINGTON

CITY           SKY/WX    TMP DP  RH WIND       PRES   REMARKS
GILLETTE       MOCLDY    71  31  22 W10       29.98S
SHERIDAN       PTCLDY    58  42  55 CALM      29.97R
BUFFALO WY     PTCLDY    67  31  26 CALM      30.05R
CODY           CLEAR     68  34  28 S6        30.07R
YELLOWSTONE LA   N/A     39  34  82 CALM      30.34R
IDAHO FALLS    MOCLDY    48  42  80 NW5       30.06S
SALMON         PTCLDY    50  43  76 CALM      30.07R
BOISE          CLEAR     70  37  29 CALM      29.88S
SPOKANE        MOCLDY    69  25  19 S9        29.90S
$$

REGIONAL REPORTS...ALBERTA

CITY           SKY/WX    TMP DP  RH WIND       PRES   REMARKS
EDMONTON       CLEAR     50  48  93 SE3       30.02S
CALGARY        PTCLDY    59  54  82 SE8       30.10R
LETHBRIDGE     PTCLDY    50  48  93 W7        30.09S
MEDICINE HAT   PTCLDY    59  54  82 CALM      30.06R
WATERTON GATE    N/A     45  43  93 CALM        N/A
CARDSTON         N/A     52  48  87 SW6         N/A
MILK RIVER       N/A     52  48  87 N9          N/A
$$

REGIONAL REPORTS...SASKATCHEWAN

CITY           SKY/WX    TMP DP  RH WIND       PRES   REMARKS
SWIFT CURRENT  CLOUDY    54  54 100 W3        30.05S
REGINA         PTCLDY    52  52 100 W7        29.98R
SASKATOON      PTCLDY    50  50 100 NW7       30.02R
CYPRESS HILLS    N/A     54  45  71 NE2         N/A
VAL MARIE        N/A     52  50  93 SE1         N/A
ROCKGLEN         N/A     55  52  88 NW9         N/A
ASSINIBOIA       N/A     48  48 100 S3          N/A
$$



USA.gov is the U.S. government's official web portal to all federal, state and local government web resources and services.